Preview of NWS' New Version of Forecast
This preview is not operational and should not be used for support decisions.

Regional Weather Roundup (RWR)

Issued by National Weather Service (NWS)

                            
000
ASUS45 KBOI 220310
RWRID 

IDAHO REGIONAL WEATHER ROUNDUP
NATIONAL WEATHER SERVICE BOISE ID
900 PM MDT SAT SEP 21 2019

NOTE: "FAIR" INDICATES FEW OR NO CLOUDS BELOW 12000 FEET
WITH NO SIGNIFICANT WEATHER AND/OR OBSTRUCTIONS TO VISIBILITY

IDZ012-014-220400-
SOUTHWEST IDAHO

  
CITY           SKY/WX    TMP DP  RH WIND       PRES   REMARKS
BOISE          CLEAR     62  42  47 NE6       30.06S                  
CALDWELL       CLEAR     60  45  57 CALM      30.06R                  
MOUNTAIN HOME  CLEAR     62  38  41 N7        30.07R                  
$$

IDZ016-017-220400-
SOUTHCENTRAL IDAHO

  
CITY           SKY/WX    TMP DP  RH WIND       PRES   REMARKS
BURLEY         PTCLDY    51  38  60 S7        30.10R                  
JEROME         PTCLDY    57  37  47 SW5       30.10R                  
TWIN FALLS     PTCLDY    47  38  71 S8        30.11R                  
$$

IDZ019>023-220400-
SOUTHEAST IDAHO

  
CITY           SKY/WX    TMP DP  RH WIND       PRES   REMARKS
IDAHO FALLS    PTCLDY    52  39  61 S9        30.11S                  
POCATELLO      CLEAR     51  37  58 S10       30.13R                  
REXBURG        CLOUDY    51  42  71 CALM      30.12R                  
$$

IDZ006-010-011-018-031-032-220400-
CENTRAL IDAHO MOUNTAINS

  
CITY           SKY/WX    TMP DP  RH WIND       PRES   REMARKS
MCCALL         CLEAR     49  38  65 E5        30.11R                  
HAILEY         PTCLDY    52  39  62 SE6       30.13R                  
STANLEY          N/A     43  34  70 CALM      30.17R                  
SALMON         CLEAR     50  40  68 S5        30.10R                  
CHALLIS        CLEAR     53  36  52 NW7       30.09R                  
$$

IDZ002-004-006-007-026-220400-
NORTHERN IDAHO

  
CITY           SKY/WX    TMP DP  RH WIND       PRES   REMARKS
LEWISTON       CLEAR     68  46  45 SE3       29.98S                  
LOWELL           N/A     56  52  86 CALM      30.05R                  
COEUR D'ALENE  CLEAR     60  47  61 SE7       30.01S                  
MULLAN PASS    CLOUDY    44  40  85 CALM      30.10S                  
$$